[[{"header":{"parameterUnit":"m.s-1","parameterCategory":1,"la1":30.2991,"la2":30.254,"lo1":-89.0895,"lo2":-89.0444,"dy":0.0017,"dx":0.0017,"nx":28,"ny":28,"refTime":"2025-08-29T03:00:00:Z","depth":0,"parameterNumber":2,"parameterNumberName":"U-component_of_WINDS"},"data":[0,0,0,0,0,0,0,0,0,0,0,0,0,0,0,0,0,0,0,0,0,0,0,0,0,0,0,0,0,0,0,0,0,0,0,0,0,0,0,0,0,0,0,0,0,0,0,0,0,0,0,0,0,0,0,0,0,0,0.3882,0.3879,0,0.3612,0.3609,0.3606,0.3382,0.338,0.3378,0.3375,0.3095,0.309,0.3085,0,0,0,0,0,0,0,0,0,0,0,0,0,0.4205,0.42,0.3882,0.3879,0.3876,0.3612,0.3609,0.3605,0.3383,0.338,0.3377,0.3374,0.3097,0.3091,0.3085,0,0,0,0,0,0,0,0,0,0,0,0,0,0.4013,0.4198,0.3883,0.3733,0.3717,0.3613,0.3609,0.3604,0.3383,0.338,0.3376,0.3373,0.3099,0.3091,0.3084,0.3106,0,0,0.306,0.3056,0,0,0,0,0,0,0,0,0.4024,0.4001,0.3758,0.3743,0.3725,0.3527,0.3619,0.3437,0.3384,0.351,0.3375,0.3371,0.3242,0.3222,0.3179,0.3093,0.3081,0.3059,0.3054,0.3051,0.3048,0,0,0,0,0,0,0,0.4037,0.4011,0.3775,0.3755,0.3735,0.3679,0.3648,0.3584,0.3399,0.3499,0.3482,0.3453,0.3232,0.3187,0.3171,0.3076,0.3059,0.3052,0.3047,0.3044,0.2995,0.2998,0,0,0,0,0,0,0.4074,0.4024,0.3784,0.3767,0.3869,0.3676,0.3641,0.3594,0.3399,0.3366,0.3456,0.3444,0.3202,0.318,0.316,0.3172,0.3051,0.3043,0.3039,0.2992,0.2996,0.3,0,0,0,0,0,0,0.4082,0.4055,0.3795,0.3891,0.3853,0.3674,0.3623,0.3591,0.3545,0.3367,0.3333,0.3445,0.3199,0.3171,0.3121,0.3159,0.304,0.3033,0.2988,0.2993,0.2998,0.3198,0,0,0,0,0,0,0.4092,0.4059,0.4066,0.3893,0.3849,0.3762,0.3626,0.3588,0.3533,0.3514,0.3347,0.3316,0.3194,0.3134,0.3113,0.3146,0.3027,0.2983,0.299,0.2996,0.3187,0.321,0.3229,0,0,0,0,0,0.4105,0.4132,0.4067,0.4039,0.3854,0.3764,0.3739,0.3599,0.3537,0.3542,0.3428,0.3321,0.316,0.3131,0.3106,0.3137,0.298,0.2988,0.2996,0.3178,0.3205,0.3228,0,0,0,0,0,0,0.4312,0.4106,0.4032,0.4005,0.3904,0.3727,0.3728,0.3632,0.3546,0.3531,0.336,0.3324,0.3293,0.321,0.3182,0.3148,0.3056,0.3059,0.3203,0.3227,0.3248,0.3267,0.302,0,0,0,0,0,0.4355,0.43,0.4123,0.4116,0.4069,0.3909,0.3864,0.3766,0.3653,0.3609,0.3491,0.3386,0.3311,0.3265,0.3186,0.3175,0.3135,0.3184,0.3205,0.3223,0.3227,0.3215,0.3234,0.3025,0.3025,0.3025,0,0,0.4442,0.4323,0.4299,0.4155,0.4065,0.4011,0.3874,0.3822,0.378,0.36,0.3546,0.3457,0.3328,0.3298,0.3279,0.3228,0.3277,0.3233,0.3249,0.3242,0.3225,0.3245,0.3263,0.303,0.3029,0.3028,0,0,0.4573,0.4479,0.4462,0.4376,0.4243,0.4136,0.4133,0.3971,0.3904,0.3848,0.3712,0.366,0.3535,0.3449,0.3389,0.3492,0.3391,0.3472,0.3578,0.3569,0.3585,0.3599,0.3635,0.365,0.3476,0.3477,0.3477,0,0.4698,0.4612,0.4466,0.4423,0.4364,0.4201,0.4183,0.4106,0.3954,0.3917,0.3863,0.3703,0.3605,0.3553,0.3579,0.3536,0.3526,0.3488,0.3595,0.3607,0.3618,0.365,0.3664,0.3488,0.3486,0.3485,0.3484,0,0.4772,0.4715,0.4718,0.4577,0.4518,0.4488,0.4337,0.4295,0.4203,0.4103,0.4048,0.3925,0.3819,0.38,0.3708,0.3735,0.3707,0.3627,0.353,0.3651,0.3678,0.3689,0.3503,0.3499,0.3496,0.3493,0,0,0.5021,0.4803,0.4806,0.474,0.4583,0.4536,0.45,0.4398,0.4365,0.4267,0.4231,0.4131,0.4056,0.3989,0.3886,0.3879,0.3968,0.3798,0.3792,0.3833,0.3989,0.4049,0.4066,0.3901,0.3903,0.3904,0.3999,0,0.5125,0.5051,0.492,0.4887,0.4833,0.468,0.4648,0.4549,0.4455,0.4395,0.429,0.4222,0.4128,0.4086,0.4072,0.396,0.3996,0.3952,0.3865,0.3863,0.3899,0.408,0.4142,0.4238,0.4009,0.4011,0.4012,0,0.5235,0.5148,0.5111,0.4959,0.4932,0.4906,0.4802,0.4747,0.4632,0.4564,0.4492,0.4381,0.4334,0.4249,0.4181,0.4154,0.4111,0.4052,0.4052,0.4036,0.3943,0.4067,0.4265,0.4279,0.4027,0.4026,0.4025,0,0.5419,0.5292,0.5254,0.5203,0.5026,0.5011,0.4936,0.4817,0.4766,0.4676,0.464,0.4547,0.4494,0.4424,0.4291,0.4242,0.4239,0.4142,0.418,0.4183,0.4183,0.4184,0.4375,0.4161,0.4161,0.416,0.416,0,0.5546,0.5529,0.5334,0.531,0.5287,0.5138,0.5119,0.503,0.4926,0.4882,0.4745,0.4706,0.4535,0.4476,0.4372,0.4332,0.431,0.4253,0.4225,0.4264,0.4271,0.4231,0.422,0.4164,0.4163,0.4162,0.4162,0,0.5745,0.5614,0.5562,0.54,0.536,0.535,0.521,0.5182,0.5082,0.5028,0.5007,0.485,0.4774,0.4636,0.452,0.4451,0.4432,0.4385,0.4471,0.4453,0.4498,0.4496,0.4667,0.4682,0.4463,0.4465,0.4467,0,0.5833,0.5817,0.5655,0.5617,0.5548,0.5488,0.5435,0.5289,0.5239,0.5109,0.5096,0.501,0.4933,0.482,0.4694,0.4606,0.4554,0.4621,0.4539,0.458,0.4553,0.4554,0.4552,0.4638,0.4641,0.4644,0.4646,0,0.6003,0.5941,0.587,0.5779,0.572,0.564,0.5553,0.5529,0.5363,0.5315,0.5237,0.5178,0.5062,0.4979,0.4873,0.4794,0.4693,0.4674,0.4677,0.4715,0.4765,0.4737,0.4519,0.4669,0.4667,0.4665,0.4664,0.4663,0.6147,0.6126,0.601,0.5936,0.5857,0.578,0.5745,0.5643,0.5576,0.5471,0.539,0.5319,0.5205,0.5053,0.4982,0.4924,0.4875,0.4881,0.4882,0.4885,0.49,0.4778,0.4904,0.4903,0.4902,0.4902,0.4901,0,0.6308,0.6227,0.6162,0.6046,0.5989,0.5902,0.5803,0.576,0.57,0.5604,0.5533,0.5445,0.5364,0.5235,0.5143,0.5122,0.5073,0.5103,0.5101,0.5085,0.4949,0.4954,0.5144,0.5144,0.5144,0.5144,0.5144,0.5144,0.6384,0.6344,0.6269,0.6189,0.6107,0.6038,0.5988,0.5917,0.5839,0.5748,0.5681,0.5599,0.5489,0.539,0.5312,0.5276,0.5248,0.5292,0.5242,0.5117,0.5094,0.5072,0.5076,0.5288,0.5288,0.5381,0.5382,0.5383]},{"header":{"parameterUnit":"m.s-1","parameterCategory":1,"la1":30.2991,"la2":30.254,"lo1":-89.0895,"lo2":-89.0444,"dy":0.0017,"dx":0.0017,"nx":28,"ny":28,"refTime":"2025-08-29T03:00:00:Z","depth":0,"parameterNumber":3,"parameterNumberName":"V-component_of_WINDS"},"data":[0,0,0,0,0,0,0,0,0,0,0,0,0,0,0,0,0,0,0,0,0,0,0,0,0,0,0,0,0,0,0,0,0,0,0,0,0,0,0,0,0,0,0,0,0,0,0,0,0,0,0,0,0,0,0,0,0,0,2.8545,2.8544,0,2.8486,2.8485,2.8484,2.8425,2.8424,2.8423,2.8422,2.8357,2.8356,2.8355,0,0,0,0,0,0,0,0,0,0,0,0,0,2.8604,2.8603,2.8545,2.8544,2.8544,2.8486,2.8485,2.8484,2.8425,2.8424,2.8423,2.8422,2.8357,2.8356,2.8355,0,0,0,0,0,0,0,0,0,0,0,0,0,2.8565,2.8603,2.8545,2.8507,2.8503,2.8486,2.8485,2.8484,2.8425,2.8424,2.8422,2.8421,2.8357,2.8356,2.8354,2.8369,0,0,2.835,2.8349,0,0,0,0,0,0,0,0,2.8567,2.8563,2.8513,2.851,2.8505,2.8461,2.8482,2.8445,2.8425,2.8454,2.8422,2.8421,2.8392,2.8388,2.8379,2.8366,2.8363,2.835,2.8349,2.8348,2.8348,0,0,0,0,0,0,0,2.857,2.8565,2.8521,2.8513,2.8508,2.8492,2.8485,2.8475,2.843,2.8452,2.8447,2.8441,2.839,2.8381,2.8377,2.8362,2.835,2.8348,2.8347,2.8347,2.8359,2.836,0,0,0,0,0,0,2.8579,2.8568,2.8523,2.852,2.8534,2.8492,2.8484,2.8477,2.843,2.8422,2.8442,2.8439,2.8384,2.8379,2.8375,2.8388,2.8348,2.8347,2.8346,2.8358,2.8359,2.836,0,0,0,0,0,0,2.8581,2.8576,2.8526,2.8543,2.8535,2.8492,2.8484,2.8476,2.8467,2.8424,2.8415,2.8442,2.8383,2.8377,2.8371,2.8385,2.8346,2.8345,2.8356,2.8358,2.836,2.8417,0,0,0,0,0,0,2.8583,2.8577,2.8582,2.8543,2.8534,2.8524,2.8485,2.8476,2.8465,2.846,2.842,2.8413,2.8381,2.8374,2.837,2.8383,2.8343,2.8355,2.8357,2.8359,2.8413,2.842,2.8426,0,0,0,0,0,2.8585,2.8599,2.8583,2.8578,2.854,2.8525,2.852,2.8485,2.8467,2.8471,2.8444,2.8414,2.8385,2.8374,2.8369,2.8381,2.8353,2.8356,2.8359,2.841,2.8419,2.8426,0,0,0,0,0,0,2.8638,2.8593,2.8574,2.8577,2.8556,2.8515,2.852,2.8495,2.8477,2.8473,2.8429,2.8421,2.842,2.84,2.8389,2.8393,2.8365,2.8367,2.8406,2.8414,2.842,2.8424,2.8342,0,0,0,0,0,2.8651,2.8644,2.8604,2.861,2.8601,2.8563,2.8555,2.853,2.8506,2.8496,2.8468,2.8444,2.843,2.8421,2.8405,2.8411,2.8401,2.8417,2.8424,2.8429,2.8431,2.8433,2.8439,2.8369,2.8369,2.8369,0,0,2.8676,2.865,2.8648,2.862,2.8601,2.8593,2.8555,2.8548,2.8542,2.8494,2.8488,2.8467,2.8438,2.8438,2.8437,2.8421,2.8449,2.8433,2.8438,2.8436,2.8436,2.8443,2.8449,2.8371,2.8371,2.8371,0,0,2.8717,2.8697,2.87,2.8683,2.8655,2.863,2.8631,2.8595,2.858,2.8574,2.8538,2.853,2.8506,2.8487,2.8474,2.8512,2.8484,2.8508,2.8541,2.8543,2.8549,2.8554,2.8566,2.8572,2.851,2.851,2.8511,0,2.875,2.8739,2.8705,2.8701,2.869,2.8649,2.8651,2.8636,2.8604,2.8596,2.8581,2.8551,2.8529,2.8525,2.8534,2.8526,2.8525,2.8511,2.8551,2.8556,2.8559,2.8571,2.8576,2.8514,2.8513,2.8513,2.8513,0,2.8781,2.8774,2.878,2.8752,2.8742,2.8742,2.8707,2.8701,2.8678,2.8655,2.8649,2.8622,2.86,2.8598,2.8574,2.8591,2.8582,2.856,2.853,2.857,2.858,2.8584,2.8518,2.8517,2.8516,2.8515,0,0,2.8851,2.8807,2.881,2.8797,2.8765,2.8758,2.8757,2.8738,2.8733,2.8714,2.871,2.8693,2.8673,2.8658,2.8633,2.8636,2.8668,2.8613,2.8611,2.8623,2.8684,2.87,2.8706,2.865,2.8651,2.8651,2.8686,0,2.8885,2.888,2.8851,2.8854,2.8847,2.881,2.8808,2.8788,2.8768,2.8758,2.8734,2.8723,2.8697,2.8688,2.8689,2.8663,2.8679,2.8661,2.8645,2.8645,2.8652,2.8711,2.8727,2.8761,2.869,2.869,2.8691,0,2.8924,2.8909,2.8912,2.8882,2.8878,2.8877,2.8858,2.885,2.8827,2.8812,2.8798,2.8771,2.8766,2.8741,2.8734,2.8722,2.8715,2.8701,2.8702,2.8697,2.8669,2.8706,2.8771,2.8775,2.8697,2.8696,2.8696,0,2.8973,2.8954,2.8954,2.8944,2.8909,2.891,2.8895,2.8871,2.8862,2.8846,2.884,2.8823,2.8813,2.88,2.8769,2.8754,2.8766,2.8737,2.8752,2.8753,2.8753,2.8753,2.8816,2.8752,2.8752,2.8752,2.8752,0,2.9013,2.9016,2.8975,2.8975,2.8978,2.8945,2.8948,2.8929,2.8909,2.8904,2.8871,2.8867,2.8827,2.8818,2.8794,2.8792,2.8788,2.8775,2.8768,2.8777,2.8778,2.8769,2.8765,2.8753,2.8753,2.8753,2.8752,0,2.9067,2.904,2.9037,2.9006,2.8998,2.9002,2.8974,2.8972,2.8951,2.8945,2.8942,2.8908,2.8896,2.8865,2.8844,2.8828,2.8832,2.8821,2.884,2.8836,2.8852,2.885,2.8909,2.8915,2.8849,2.885,2.885,0,2.9093,2.9095,2.9065,2.9061,2.9048,2.904,2.9032,2.9,2.8993,2.8969,2.897,2.8956,2.8943,2.8926,2.8899,2.8883,2.887,2.8892,2.8867,2.8877,2.8869,2.8869,2.8868,2.8896,2.8897,2.8898,2.8899,0,2.9143,2.913,2.912,2.9106,2.9098,2.9085,2.907,2.9068,2.9032,2.9026,2.9015,2.9005,2.8986,2.8972,2.8954,2.8937,2.8912,2.8908,2.891,2.8917,2.8928,2.8922,2.8853,2.8905,2.8905,2.8904,2.8904,2.8904,2.9182,2.9183,2.9162,2.9153,2.9139,2.9127,2.9124,2.9104,2.9094,2.9077,2.906,2.905,2.9029,2.9001,2.8988,2.898,2.8966,2.897,2.897,2.8971,2.8975,2.8932,2.8976,2.8976,2.8976,2.8975,2.8975,0,2.9229,2.9215,2.9207,2.9188,2.9181,2.9161,2.9145,2.9139,2.9132,2.9115,2.9105,2.9092,2.908,2.9054,2.9039,2.9038,2.9026,2.9035,2.9033,2.903,2.8988,2.8987,2.9045,2.9045,2.9045,2.9045,2.9045,2.9045,2.9252,2.9252,2.9237,2.923,2.9216,2.9208,2.92,2.9189,2.9175,2.9164,2.9154,2.9138,2.9118,2.9102,2.909,2.9082,2.9077,2.909,2.9079,2.9039,2.9033,2.9026,2.9025,2.909,2.909,2.9121,2.9121,2.9121]}]]